Regional Weather Roundup
Issued by NWS

Home | Current Version | Previous Version | Text Only | Print | Product List | Glossary Off
Versions: 1 2 3 4 5 6 7 8 9 10 11 12 13 14 15 16 17 18 19 20 21 22 23 24 25 26 27 28 29 30 31 32 33 34 35 36 37 38 39 40 41 42 43 44 45 46 47 48 49 50

000
ASUS43 KLOT 011113
RWRIL

ILLINOIS REGIONAL WEATHER ROUNDUP
NATIONAL WEATHER SERVICE CHICAGO/ROMEOVILLE IL
600 AM CDT SAT OCT 01 2016

NOTE: "FAIR" INDICATES FEW OR NO CLOUDS BELOW 12,000 FEET WITH NO
SIGNIFICANT WEATHER AND/OR OBSTRUCTIONS TO VISIBILITY.

* THESE STATIONS ARE NOT UNDER NWS QUALITY CONTROL. THEY ALSO MAY NOT
  REPORT WEATHER SUCH AS PRECIPITATION OR FOG.

ILZ001-002-007-009-015-016-024-011200-
NORTHWEST ILLINOIS

CITY           SKY/WX    TMP DP  RH WIND       PRES   REMARKS
MOLINE         CLOUDY    61  58  90 N5        30.04S
STERLING*      CLOUDY    60  59  96 N6        30.04S
SAVANNA*       LGT RAIN  59  58  97 N3        30.05S
$$

ILZ003-004-008-010-011-017-018-011200-
NORTH CENTRAL ILLINOIS

CITY           SKY/WX    TMP DP  RH WIND       PRES   REMARKS
ROCKFORD       CLOUDY    60  58  92 N5        30.06S
FREEPORT*      CLOUDY    58  58  97 NE6       30.06F
ROCHELLE*      MOCLDY    58  57  99 N3        30.04S FOG
DE KALB*       PTCLDY    56  55  99 NE6       30.04S FOG
$$

ILZ005-006-012>014-019>023-011200-
NORTHEAST ILLINOIS

CITY           SKY/WX    TMP DP  RH WIND       PRES   REMARKS
CHICAGO-OHARE  CLOUDY    59  57  93 N5        30.02S
CHICAGO-MIDWAY CLOUDY    62  57  83 NW7       30.01F
AURORA         PTCLDY    57  55  93 NE6       30.04R
LANSING*       CLOUDY    57  57 100 W3        30.01S
JOLIET*        FOG       53  53  98 CALM      30.03R VSB 3/4
WAUKEGAN       CLOUDY    59  57  93 N3        30.03S
DUPAGE AIRPORT MOCLDY    54  52  93 N6        30.03R
KANKAKEE*      MOCLDY    56  56  97 CALM      30.02S FOG
WHEELING       CLOUDY    59  57  93 N3        30.05R
MORRIS*        MOCLDY    55  54  96 CALM      30.02R FOG
ROMEOVILLE*    CLOUDY    57  57 100 NE5       30.03R
NORTHERLY ISL    N/A     60  56  86 NW3         N/A
$$

LMZ740>746-011200-
SOUTHERN LAKE MICHIGAN

STATION/POSITION SKY/WX   TEMP    WIND        PRES    VSBY  WAVE
                          AIR SEA DIR/SP/G                  HT/PER
                          (F)     (DEG/KT/KT) (MB)    (MI)  (FT/S)
SOUTHERN BUOY              63 67   60/ 14/ 14 1016.5F         3/ 6
WILMETTE HARBOR            60 59  350/  4/  6   N/A           3/ 6
HARRISON CRIB              63     350/  7/  8   N/A
BURNHAM HARBOR             61     350/  3/  5   N/A
CALUMET HARBOR             60     300/  2/  3 1015.8F
BURNS HARBOR               62      50/ 10/ 13 1016.3F
MICHIGAN CITY              61      10/ 12/ 14   N/A
MICHIGAN CITY 6N           62 64   30/ 10/ 14   N/A           3/ 6
ST. JOSEPH                 53 51   40/  8/ 10 1016.5          3/ 6
$$

ILZ025>027-034>036-040-047-049-050-058-095>099-011200-
WEST-CENTRAL ILLINOIS

CITY           SKY/WX    TMP DP  RH WIND       PRES   REMARKS
QUINCY         CLOUDY    61  59  93 NW7       30.05R
GALESBURG*     CLOUDY    59  58  97 N8        30.03F
MACOMB*        CLOUDY    60  59  96 N8        30.06S
JACKSONVILLE*  CLOUDY    61  59  94 NW5       30.03R
PITTSFIELD*    CLOUDY    61  59  93 NW6       30.05S
$$

ILZ028>032-037-038-041>044-048-051>054-059>061-011200-
CENTRAL ILLINOIS

CITY           SKY/WX    TMP DP  RH WIND       PRES   REMARKS
PONTIAC        PTCLDY    57  57 100 NE3       30.02S FOG
BLOOMINGTON    CLOUDY    58  57  97 NE9       30.02R
DECATUR        CLOUDY    61  58  90 NE8       30.00R
PEORIA         LGT RAIN  61  60  97 CALM      30.02R
LACON*         CLOUDY    60  59  96 CALM      30.01S
LINCOLN*       MOCLDY    60  60 100 N6        30.00S FOG
SPRINGFIELD    CLOUDY    62  60  93 N6        30.01R FOG
TAYLORVILLE    CLOUDY    60  59  99 CALM      30.00S FOG
$$

ILZ033-039-045-046-055>057-062-063-011200-
EAST-CENTRAL ILLINOIS

CITY           SKY/WX    TMP DP  RH WIND       PRES   REMARKS
CHAMPAIGN      CLOUDY    60  58  92 N5        30.00R
RANTOUL*       CLOUDY    61  60  97 N3        30.00R FOG
MATTOON        CLOUDY    60  58  92 N3        29.98R FOG
PARIS*         CLOUDY    56  56 100 CALM      30.00S FOG
$$

ILZ079-100>102-011200-
SOUTHWEST ILLINOIS

CITY           SKY/WX    TMP DP  RH WIND       PRES   REMARKS
ALTON          CLOUDY    60  60  97 NW5       30.02S FOG
BELLEVILLE     PTCLDY    63  63 100 NW7       30.00S
CAHOKIA*       LGT RAIN  63  59  87 NW9       30.02S FOG
SPARTA*        CLOUDY    61  60  96 W5        30.02S
$$

ILZ064>066-069>071-074>076-080>082-084>086-088>090-092>094-011200-
SOUTH-CENTRAL ILLINOIS

CITY           SKY/WX    TMP DP  RH WIND       PRES   REMARKS
CARBONDALE     CLOUDY    61  61 100 W6        30.02R
CAIRO*         PTCLDY    59  59  98 NW3       30.03S
EFFINGHAM*     CLOUDY    60  60 100 CALM      30.00S FOG
MARION         CLOUDY    63  63 100 CALM      30.02S FOG
MT. VERNON     CLOUDY    61  55  82 CALM      30.00S
CENTRALIA*     CLOUDY    61  61 100 N3        29.99R
SALEM*         CLOUDY    62  60  94 CALM      29.99S FOG
METROPOLIS*    CLOUDY    62  60  95 CALM      30.03R
$$

ILZ067-068-072-073-078-083-087-091-011200-
SOUTHEAST ILLINOIS

CITY           SKY/WX    TMP DP  RH WIND       PRES   REMARKS
LAWRENCEVILLE  FOG       57  55  93 SE3       30.00R VSB 1/2
FLORA*         CLOUDY    61  60  97 CALM      29.99S FOG
FAIRFIELD*     CLOUDY    61  61 100 CALM      29.99R
HARRISBURG*    LGT RAIN  62  61  99 W6        30.00S
ROBINSON*      HVY RAIN  55  55 100 SE5       30.01R VSB 1/4
CARMI*         LGT RAIN  59  59 100 CALM      29.99S
$$

ABBREVIATIONS USED IN REMARKS
   TC - TEMPERATURE IN CELSIUS
  WCI - WIND CHILL INDEX
   HX - HEAT INDEX
  VSB - VISIBILITY
$$





USA.gov is the U.S. government's official web portal to all federal, state and local government web resources and services.